ORBCOMM FM08 [+]

Last updated on July 6, 2021, 3:36 p.m. UTC

1 25112U 97084A   21186.98745048  .00000093  00000-0  75157-4 0  9993
2 25112  45.0177  42.5215 0007375 177.0647 183.0246 14.39277753233459
UTC
Height (km)
Latitude
Longitude
Inclination
Orbital Period
UTC large
Height (km)
Speed (km/s)
/
Latitude / Longitude
Inclination (degrees)
Orbital Period (minutes)
Azimuth
Elevation
Range (km)
Doppler Factor
iOS Compass Heading
iOS Angle